20:43
Airports
History
Links
Donate
Help keep this website running!
PayPal
Bitcoin
Information on this page is community maintained and may be outdated or inaccurate and is intended for reference only or PC simulator navigating!
Always use approved charts for navigating.
ULMM
Murmansk
Murmansk (ULMM)
???. ???????, Murmanskaya oblast, Russian Federation (184355)
(C)
Lat/Lng:68° 46' 54.02" N / 32° 45' 2.96" E
68.781671 / 32.750821
Elevation:266'ft 81mMSL
ID / ICAO:ULMM
Runways:1
Longest:(14-32) 2,494.5m 8,184ft Concrete
Controlled:Yes
Distance To
Airport ID:
Airport Radio Frequencies
Tower: 120.3
Nearby VORs <50NM
Nearby NDBs
METARUpdated 04-27-17 20:30 GMT
Altimeter: 29.88
Visibility: 6.2 statute miles
Wind: 5.8 knots (010°)
Temp: 0°c 32°f
Humidity: %

METAR: ULMM 272030Z 01003MPS 9999 -SHSN BKN020CB M00/M05 Q1012 R31/290155 NOSIG RMK QFE752

(Powered by phpweather)
Runway 14 / 32
Dimensions:2494.5 x 45.1m 8184' x 148'ft
Surface:Concrete
Edge Lights:Medium intensity
Runway 14 [A]Runway 32 [B]
Heading:146°TH 326°TH
Lat:
Lng:
68° 47' 27.53"N
32° 44' 1.07"E
68° 46' 20.5"N
32° 46' 4.84"E
ALS:Calvert ILS Cat II
Google Map
Nearby Airports
(C) HOYBUKTMOEN 95.6 NM
ENKR NW 312°
(C) Vadso 113.3 NM
ENVD NW 321°
(C) SVARTNES 116.2 NM
ENSS NNW 339°
(C) Ivalo 134.5 NM
EFIV (WX) W 264°
(C) BATSFJORD 145.4 NM
ENBS NNW 329°
4 Vuotso 150.6 NM
EFVU WSW 251°
(C) Berlevaag 169.3 NM
ENBV NNW 328°
VFR Chart
Flight Planning at SkyVector.com